| time (UTC) | temp F | wind direction | speed knots | gust knots | rain 1hr in | rain 24hr in | rain mn in | humidity % | barometer mb |
| 20260506102002 | 51 | 315 | 0.0 | 0.0 | 0.00 | 0.00 | 0.00 | 99 | 1015.6 |
| 20260506094942 | 51 | 270 | 0.0 | 0.0 | 0.00 | 0.00 | 0.00 | 99 | 1015.3 |
| 20260506091927 | 52 | 270 | 0.0 | 0.0 | 0.00 | 0.00 | 0.00 | 99 | 1015.1 |
| 20260506084911 | 52 | 338 | 0.0 | 0.0 | 0.00 | 0.00 | 0.00 | 99 | 1015.0 |
| 20260506081912 | 53 | 338 | 0.0 | 0.0 | 0.00 | 0.00 | 0.00 | 99 | 1014.7 |
| 20260506071742 | 54 | 22 | 0.0 | 0.0 | 0.00 | 0.00 | 0.00 | 96 | 1014.0 |
| 20260506061712 | 56 | 135 | 1.7 | 3.5 | 0.00 | 0.00 | 0.00 | 91 | 1013.5 |
| 20260506044548 | 59 | 158 | 1.7 | 1.7 | 0.00 | 0.00 | 0.00 | 84 | 1012.9 |
| 20260506041532 | 0 | 135 | 1.7 | 3.5 | 0.00 | 0.00 | 0.00 | 1012.6 | |
| 20260506034517 | 61 | 180 | 1.7 | 3.5 | 0.00 | 0.00 | 0.00 | 75 | 1012.3 |
| 20260506031502 | 63 | 135 | 1.7 | 2.6 | 0.00 | 0.00 | 0.00 | 69 | 1012.2 |
| 20260506024448 | 65 | 22 | 0.9 | 3.5 | 0.00 | 0.00 | 0.00 | 62 | 1012.0 |
| 20260506021432 | 0 | 202 | 1.7 | 1.7 | 0.00 | 0.00 | 0.00 | 1012.0 | |
| 20260506014417 | 0 | 202 | 1.7 | 1.7 | 0.00 | 0.00 | 0.00 | 1011.9 | |
| 20260506011403 | 0 | 202 | 1.7 | 1.7 | 0.00 | 0.00 | 0.00 | 1012.0 | |
| 20260506004347 | 69 | 202 | 1.7 | 3.5 | 0.00 | 0.00 | 0.00 | 56 | 1012.1 |
| 20260506001331 | 70 | 158 | 1.7 | 3.5 | 0.00 | 0.00 | 0.00 | 55 | 1012.2 |
| 20260505234303 | 70 | 112 | 3.5 | 4.3 | 0.00 | 0.00 | 0.00 | 55 | 1012.5 |
| 20260505231301 | 71 | 338 | 1.7 | 4.3 | 0.00 | 0.00 | 0.00 | 55 | 1012.7 |
| 20260505224246 | 71 | 158 | 2.6 | 4.3 | 0.00 | 0.00 | 0.00 | 54 | 1012.9 |
| 20260505221231 | 72 | 158 | 3.5 | 6.1 | 0.00 | 0.00 | 0.00 | 53 | 1013.1 |
| 20260505214216 | 72 | 180 | 2.6 | 4.3 | 0.00 | 0.00 | 0.00 | 54 | 1013.3 |
| 20260505211201 | 72 | 158 | 2.6 | 6.1 | 0.00 | 0.00 | 0.00 | 53 | 1013.5 |
| 20260505204145 | 73 | 158 | 2.6 | 5.2 | 0.00 | 0.00 | 0.00 | 55 | 1013.7 |
| 20260505201130 | 71 | 112 | 2.6 | 6.1 | 0.00 | 0.00 | 0.00 | 55 | 1013.8 |
| 20260505194115 | 72 | 180 | 3.5 | 5.2 | 0.00 | 0.00 | 0.00 | 56 | 1013.9 |
| 20260505191100 | 72 | 112 | 3.5 | 5.2 | 0.00 | 0.00 | 0.00 | 53 | 1013.7 |
| 20260505184045 | 70 | 90 | 2.6 | 4.3 | 0.00 | 0.00 | 0.00 | 59 | 1013.7 |
| 20260505181030 | 69 | 112 | 2.6 | 4.3 | 0.00 | 0.00 | 0.00 | 63 | 1013.7 |
| 20260505174016 | 68 | 112 | 3.5 | 4.3 | 0.00 | 0.00 | 0.00 | 64 | 1013.5 |
| 20260505170942 | 66 | 225 | 3.5 | 4.3 | 0.00 | 0.00 | 0.00 | 68 | 1013.6 |
| 20260505163932 | 67 | 112 | 2.6 | 3.5 | 0.00 | 0.00 | 0.00 | 69 | 1013.5 |
| 20260505160930 | 66 | 180 | 1.7 | 3.5 | 0.00 | 0.00 | 0.00 | 70 | 1013.4 |
| 20260505150915 | 65 | 180 | 1.7 | 1.7 | 0.00 | 0.00 | 0.00 | 67 | 1012.9 |
| 20260505123801 | 54 | 292 | 0.0 | 1.7 | 0.00 | 0.00 | 0.00 | 83 | 1011.5 |
| 20260505120730 | 56 | 22 | 0.9 | 1.7 | 0.00 | 0.00 | 0.00 | 80 | 1011.1 |
| 20260505113715 | 56 | 22 | 0.0 | 1.7 | 0.00 | 0.00 | 0.00 | 78 | 1010.9 |
| 20260505110701 | 57 | 338 | 0.9 | 1.7 | 0.00 | 0.00 | 0.00 | 76 | 1010.7 |